When you browse on this site, cookies collect data to enhance your experience and personalize the content and advertising you see.
Visit our Privacy Policy to learn more. By continuing to use the site, you agree to this use of cookies and data.
  • In Hungary
  • List of Countries
  • For 7 days
  • Water Temperature
  • Satellite Maps
  • Weather Map
  • News
  • Weather Widgets
  • user-avatar
    Login

    Hourly Weather Peshawar

    Today, 18 January, Friday

    Time Temperature Precipitation Wind Pressure Humidity
    00:00 +23°C° 0 mm 2 mps 757 mmHg 26%
    01:00 +23°C° 0 mm 2 mps 757 mmHg 26%
    02:00 +23°C° 0 mm 2 mps 757 mmHg 27%
    03:00 +21°C° 0 mm 2 mps 757 mmHg 27%
    04:00 +21°C° 0 mm 2 mps 757 mmHg 26%
    05:00 +21°C° 0 mm 2 mps 757 mmHg 25%
    06:00 +21°C° 0 mm 3 mps 757 mmHg 24%
    07:00 +21°C° 0 mm 3 mps 758 mmHg 23%
    08:00 +24°C° 0 mm 3 mps 758 mmHg 20%
    09:00 +26°C° 0 mm 3 mps 758 mmHg 17%
    10:00 +28°C° 0 mm 3 mps 758 mmHg 14%
    11:00 +29°C° 0 mm 2 mps 757 mmHg 13%
    12:00 +30°C° 0 mm 2 mps 757 mmHg 13%
    13:00 +30°C° 0 mm 1 mps 756 mmHg 12%
    14:00 +30°C° 0 mm 1 mps 756 mmHg 13%
    15:00 +30°C° 0 mm 2 mps 756 mmHg 13%
    16:00 +30°C° 0 mm 2 mps 756 mmHg 14%
    17:00 +29°C° 0 mm 3 mps 756 mmHg 19%
    18:00 +27°C° 0 mm 3 mps 756 mmHg 23%
    19:00 +26°C° 0 mm 3 mps 756 mmHg 28%
    20:00 +25°C° 0 mm 3 mps 756 mmHg 31%
    21:00 +25°C° 0 mm 3 mps 757 mmHg 34%
    22:00 +24°C° 0 mm 2 mps 757 mmHg 37%
    23:00 +23°C° 0 mm 2 mps 757 mmHg 39%

    Tomorrow, 19 January, Saturday

    Time Temperature Precipitation Wind Pressure Humidity
    00:00 +23°C° 0 mm 2 mps 756 mmHg 41%
    01:00 +23°C° 0 mm 2 mps 756 mmHg 43%
    02:00 +21°C° 0 mm 2 mps 756 mmHg 45%
    03:00 +21°C° 0 mm 2 mps 756 mmHg 46%
    04:00 +20°C° 0 mm 2 mps 755 mmHg 48%
    05:00 +21°C° 0 mm 1 mps 756 mmHg 48%
    06:00 +21°C° 0 mm 1 mps 756 mmHg 48%
    07:00 +21°C° 0 mm 1 mps 757 mmHg 48%
    08:00 +23°C° 0 mm 1 mps 757 mmHg 42%
    09:00 +25°C° 0 mm 1 mps 757 mmHg 36%
    10:00 +27°C° 0 mm 1 mps 758 mmHg 31%
    11:00 +28°C° 0 mm 1 mps 757 mmHg 29%
    12:00 +29°C° 0 mm 2 mps 757 mmHg 28%
    13:00 +30°C° 0 mm 3 mps 756 mmHg 26%
    14:00 +29°C° 0 mm 3 mps 756 mmHg 30%
    15:00 +29°C° 0 mm 4 mps 755 mmHg 34%
    16:00 +28°C° 0 mm 4 mps 755 mmHg 39%
    17:00 +27°C° 0 mm 4 mps 756 mmHg 47%
    18:00 +26°C° 0 mm 4 mps 756 mmHg 56%
    19:00 +24°C° 0 mm 3 mps 756 mmHg 65%
    20:00 +24°C° 0 mm 3 mps 756 mmHg 68%
    21:00 +23°C° 0 mm 2 mps 757 mmHg 72%
    22:00 +23°C° 0 mm 2 mps 757 mmHg 75%
    23:00 +21°C° 0 mm 2 mps 757 mmHg 77%

    Day after tomorrow, 20 January, Sunday

    Time Temperature Precipitation Wind Pressure Humidity
    00:00 +21°C° 0 mm 2 mps 757 mmHg 79%
    01:00 +21°C° 0 mm 2 mps 757 mmHg 81%
    02:00 +21°C° 0 mm 2 mps 757 mmHg 83%
    03:00 +20°C° 0 mm 2 mps 757 mmHg 85%
    04:00 +20°C° 0 mm 2 mps 757 mmHg 87%
    05:00 +20°C° 0 mm 2 mps 757 mmHg 87%
    06:00 +20°C° 0 mm 2 mps 757 mmHg 87%
    07:00 +21°C° 0 mm 2 mps 758 mmHg 86%
    08:00 +23°C° 0 mm 2 mps 758 mmHg 78%
    09:00 +24°C° 0 mm 3 mps 758 mmHg 70%
    10:00 +26°C° 0 mm 3 mps 758 mmHg 62%
    11:00 +26°C° 0 mm 4 mps 758 mmHg 57%
    12:00 +27°C° 0 mm 4 mps 757 mmHg 53%
    13:00 +28°C° 0 mm 5 mps 756 mmHg 48%
    14:00 +27°C° 0 mm 5 mps 756 mmHg 50%
    15:00 +27°C° 0 mm 5 mps 755 mmHg 51%
    16:00 +27°C° 0 mm 5 mps 755 mmHg 53%
    17:00 +26°C° 0 mm 5 mps 755 mmHg 58%
    18:00 +25°C° 0 mm 5 mps 756 mmHg 63%
    19:00 +25°C° 0 mm 4 mps 756 mmHg 67%
    20:00 +23°C° 0.1 mm 5 mps 756 mmHg 70%
    21:00 +23°C° 0.1 mm 5 mps 756 mmHg 72%
    22:00 +23°C° 0.1 mm 5 mps 756 mmHg 75%
    23:00 +22°C° 0.1 mm 5 mps 755 mmHg 75%

    21 January, Monday

    Time Temperature Precipitation Wind Pressure Humidity
    00:00 +22°C° 0.1 mm 5 mps 755 mmHg 75%
    01:00 +22°C° 0.1 mm 4 mps 755 mmHg 75%
    02:00 +22°C° 0 mm 4 mps 755 mmHg 72%
    03:00 +22°C° 0 mm 4 mps 754 mmHg 69%
    04:00 +21°C° 0 mm 4 mps 754 mmHg 66%
    05:00 +21°C° 0 mm 3 mps 755 mmHg 64%
    06:00 +21°C° 0 mm 3 mps 755 mmHg 62%
    07:00 +21°C° 0 mm 3 mps 756 mmHg 60%
    08:00 +22°C° 0 mm 3 mps 756 mmHg 53%
    09:00 +24°C° 0 mm 3 mps 756 mmHg 46%
    10:00 +25°C° 0 mm 3 mps 756 mmHg 39%
    11:00 +26°C° 0 mm 4 mps 756 mmHg 32%
    12:00 +27°C° 0 mm 5 mps 755 mmHg 26%
    13:00 +27°C° 0 mm 5 mps 754 mmHg 20%
    14:00 +27°C° 0 mm 6 mps 754 mmHg 19%
    15:00 +26°C° 0 mm 6 mps 754 mmHg 19%
    16:00 +26°C° 0 mm 7 mps 753 mmHg 18%
    17:00 +24°C° 0 mm 6 mps 754 mmHg 21%
    18:00 +23°C° 0 mm 5 mps 755 mmHg 24%
    19:00 +22°C° 0 mm 5 mps 755 mmHg 28%
    20:00 +22°C° 0 mm 4 mps 755 mmHg 28%
    21:00 +21°C° 0 mm 4 mps 755 mmHg 28%
    22:00 +21°C° 0 mm 4 mps 755 mmHg 28%
    23:00 +20°C° 0 mm 4 mps 755 mmHg 24%

    22 January, Tuesday

    Time Temperature Precipitation Wind Pressure Humidity
    00:00 +20°C° 0 mm 4 mps 755 mmHg 20%
    01:00 +19°C° 0 mm 4 mps 755 mmHg 16%
    02:00 +19°C° 0 mm 4 mps 754 mmHg 15%
    03:00 +18°C° 0 mm 4 mps 754 mmHg 14%
    04:00 +17°C° 0 mm 4 mps 754 mmHg 13%
    05:00 +17°C° 0 mm 3 mps 755 mmHg 13%
    06:00 +17°C° 0 mm 3 mps 756 mmHg 13%
    07:00 +17°C° 0 mm 3 mps 756 mmHg 13%
    08:00 +18°C° 0 mm 2 mps 756 mmHg 12%
    09:00 +20°C° 0 mm 2 mps 757 mmHg 10%
    10:00 +21°C° 0 mm 2 mps 757 mmHg 9%
    11:00 +23°C° 0 mm 2 mps 756 mmHg 9%
    12:00 +24°C° 0 mm 2 mps 756 mmHg 8%
    13:00 +25°C° 0 mm 2 mps 755 mmHg 7%
    14:00 +25°C° 0 mm 2 mps 755 mmHg 8%
    15:00 +25°C° 0 mm 3 mps 755 mmHg 8%
    16:00 +25°C° 0 mm 4 mps 755 mmHg 9%
    17:00 +23°C° 0 mm 4 mps 755 mmHg 14%
    18:00 +22°C° 0 mm 4 mps 756 mmHg 20%
    19:00 +21°C° 0 mm 4 mps 756 mmHg 25%
    20:00 +20°C° 0 mm 3 mps 757 mmHg 28%
    21:00 +20°C° 0 mm 3 mps 757 mmHg 31%
    22:00 +20°C° 0 mm 3 mps 757 mmHg 34%
    23:00 +19°C° 0 mm 3 mps 757 mmHg 39%

    23 January, Wednesday

    Time Temperature Precipitation Wind Pressure Humidity
    00:00 +19°C° 0 mm 3 mps 757 mmHg 43%
    01:00 +19°C° 0 mm 4 mps 757 mmHg 48%
    02:00 +19°C° 0 mm 3 mps 757 mmHg 49%
    03:00 +19°C° 0 mm 3 mps 756 mmHg 51%
    04:00 +18°C° 0 mm 3 mps 756 mmHg 52%
    05:00 +18°C° 0 mm 3 mps 757 mmHg 50%
    06:00 +18°C° 0 mm 3 mps 758 mmHg 47%
    07:00 +18°C° 0 mm 2 mps 758 mmHg 44%
    08:00 +20°C° 0 mm 2 mps 758 mmHg 36%
    09:00 +21°C° 0 mm 2 mps 759 mmHg 27%
    10:00 +24°C° 0 mm 2 mps 759 mmHg 19%
    11:00 +24°C° 0 mm 2 mps 758 mmHg 17%
    12:00 +25°C° 0 mm 2 mps 758 mmHg 15%
    13:00 +26°C° 0 mm 1 mps 757 mmHg 12%
    14:00 +26°C° 0 mm 1 mps 757 mmHg 13%
    15:00 +26°C° 0 mm 1 mps 757 mmHg 13%
    16:00 +26°C° 0 mm 2 mps 757 mmHg 13%
    17:00 +25°C° 0 mm 2 mps 757 mmHg 15%
    18:00 +24°C° 0 mm 3 mps 758 mmHg 17%
    19:00 +22°C° 0 mm 3 mps 758 mmHg 19%
    20:00 +21°C° 0 mm 3 mps 758 mmHg 20%
    21:00 +21°C° 0 mm 4 mps 759 mmHg 20%
    22:00 +20°C° 0 mm 4 mps 759 mmHg 21%
    23:00 +20°C° 0 mm 4 mps 759 mmHg 23%
    Show more